VIV703 MMOX-MMMX

Flight info

Callsign VIV703
Flight time 0h 42m
Altitude 30000
Route OAX3B/19 MAXIL UJ33 KODEK UT157 LARLO LARLO4A
Aircraft A20N/M-SDE2E3FGHIRWXY/LB1

Departure

Time 2026-05-09 01:56
Airport Xoxocotlán International Airport (MMOX)

Arrival

Time 2026-05-09 02:38
Airport Mexico City Benito Juárez International Airport (MMMX)
Time Latitude Longitude Altitude Speed Heading
2026-05-09 01:30 17.00062 -96.72253 5018 ft 0 kts 80°
2026-05-09 01:46 17.00061 -96.72262 5020 ft 2 kts 79°
2026-05-09 01:46 17.00058 -96.72277 5020 ft 2 kts 80°
2026-05-09 01:46 17.00055 -96.72292 5019 ft 2 kts 80°
2026-05-09 01:47 17.00054 -96.72304 5019 ft 0 kts 79°
2026-05-09 01:47 17.00050 -96.72316 5018 ft 2 kts 40°
2026-05-09 01:47 17.00035 -96.72322 5017 ft 1 kts 354°
2026-05-09 01:47 17.00029 -96.72320 5017 ft 1 kts 337°
2026-05-09 01:48 17.00026 -96.72319 5017 ft 0 kts 343°
2026-05-09 01:51 17.00032 -96.72320 5017 ft 3 kts 354°
2026-05-09 01:51 17.00085 -96.72317 5018 ft 10 kts
2026-05-09 01:51 17.00162 -96.72305 5018 ft 12 kts 14°
2026-05-09 01:51 17.00247 -96.72282 5018 ft 8 kts 360°
2026-05-09 01:52 17.00268 -96.72294 5019 ft 1 kts 310°
2026-05-09 01:52 17.00277 -96.72309 5019 ft 3 kts 295°
2026-05-09 01:52 17.00288 -96.72343 5018 ft 6 kts 286°
2026-05-09 01:52 17.00304 -96.72401 5017 ft 10 kts 285°
2026-05-09 01:53 17.00358 -96.72455 5017 ft 12 kts
2026-05-09 01:53 17.00454 -96.72430 5019 ft 17 kts 15°
2026-05-09 01:53 17.00597 -96.72388 5021 ft 22 kts 16°
2026-05-09 01:53 17.00750 -96.72344 5023 ft 17 kts 13°
2026-05-09 01:54 17.00866 -96.72360 5024 ft 12 kts 345°
2026-05-09 01:54 17.00920 -96.72324 5025 ft 8 kts 105°
2026-05-09 01:54 17.00869 -96.72311 5025 ft 7 kts 192°
2026-05-09 01:54 17.00865 -96.72311 5024 ft 0 kts 194°
2026-05-09 01:55 17.00796 -96.72330 5024 ft 28 kts 194°
2026-05-09 01:55 17.00352 -96.72456 5017 ft 100 kts 197°
2026-05-09 01:55 16.99466 -96.72719 5005 ft 160 kts 194°
2026-05-09 01:55 16.98296 -96.73062 5345 ft 179 kts 194°
2026-05-09 01:56 16.97082 -96.73343 5987 ft 181 kts 184°
2026-05-09 01:56 16.95845 -96.73528 6690 ft 182 kts 191°
2026-05-09 01:56 16.94610 -96.73834 7121 ft 187 kts 192°
2026-05-09 01:56 16.93302 -96.74183 7375 ft 201 kts 193°
2026-05-09 01:57 16.91902 -96.74563 7626 ft 216 kts 193°
2026-05-09 01:57 16.90358 -96.74983 7852 ft 236 kts 193°
2026-05-09 01:57 16.88704 -96.75432 8155 ft 252 kts 193°
2026-05-09 01:57 16.86957 -96.75906 8457 ft 269 kts 193°
2026-05-09 01:58 16.85066 -96.76418 8779 ft 286 kts 193°
2026-05-09 01:58 16.83117 -96.76949 9304 ft 293 kts 193°
2026-05-09 01:58 16.81152 -96.77483 9958 ft 296 kts 193°
2026-05-09 01:58 16.79140 -96.78020 10557 ft 300 kts 190°
2026-05-09 01:59 16.77011 -96.78077 10848 ft 312 kts 166°
2026-05-09 01:59 16.74992 -96.77196 11139 ft 323 kts 143°
2026-05-09 01:59 16.73439 -96.75501 11547 ft 329 kts 120°
2026-05-09 01:59 16.72655 -96.73270 12153 ft 331 kts 97°
2026-05-09 02:00 16.72794 -96.70882 12770 ft 334 kts 75°
2026-05-09 02:00 16.73859 -96.68735 13305 ft 341 kts 51°
2026-05-09 02:00 16.75715 -96.67205 13837 ft 348 kts 27°
2026-05-09 02:00 16.78062 -96.66608 14356 ft 356 kts
2026-05-09 02:01 16.80537 -96.67102 14876 ft 362 kts 341°
2026-05-09 02:01 16.82909 -96.68000 15397 ft 366 kts 341°
2026-05-09 02:01 16.85319 -96.68883 15867 ft 371 kts 341°
2026-05-09 02:01 16.87774 -96.69764 16365 ft 374 kts 341°
2026-05-09 02:02 16.90244 -96.70641 16877 ft 377 kts 341°
2026-05-09 02:02 16.92750 -96.71531 17377 ft 380 kts 341°
2026-05-09 02:02 16.95258 -96.72460 17857 ft 383 kts 338°
2026-05-09 02:02 16.97674 -96.73637 18338 ft 386 kts 331°
2026-05-09 02:03 16.99959 -96.75098 18802 ft 388 kts 325°
2026-05-09 02:03 17.02187 -96.76718 19255 ft 391 kts 324°
2026-05-09 02:03 17.04415 -96.78381 19739 ft 394 kts 323°
2026-05-09 02:03 17.06662 -96.80057 20210 ft 396 kts 323°
2026-05-09 02:04 17.08912 -96.81731 20684 ft 398 kts 323°
2026-05-09 02:04 17.11190 -96.83418 21110 ft 402 kts 323°
2026-05-09 02:04 17.13457 -96.85087 21530 ft 405 kts 323°
2026-05-09 02:04 17.15774 -96.86791 21937 ft 408 kts 323°
2026-05-09 02:05 17.18126 -96.88526 22389 ft 410 kts 323°
2026-05-09 02:05 17.20447 -96.90241 22842 ft 412 kts 323°
2026-05-09 02:05 17.22781 -96.91966 23280 ft 414 kts 323°
2026-05-09 02:05 17.25137 -96.93712 23723 ft 416 kts 323°
2026-05-09 02:06 17.27494 -96.95458 24176 ft 417 kts 323°
2026-05-09 02:06 17.29872 -96.97219 24608 ft 419 kts 323°
2026-05-09 02:06 17.32278 -96.99000 25048 ft 421 kts 323°
2026-05-09 02:07 17.37079 -97.02553 25883 ft 424 kts 323°
2026-05-09 02:07 17.39469 -97.04324 26273 ft 426 kts 323°
2026-05-09 02:07 17.41916 -97.06138 26663 ft 428 kts 323°
2026-05-09 02:07 17.44344 -97.07941 27035 ft 430 kts 323°
2026-05-09 02:08 17.46787 -97.09754 27388 ft 432 kts 323°
2026-05-09 02:08 17.49241 -97.11577 27715 ft 435 kts 323°
2026-05-09 02:08 17.51722 -97.13422 28044 ft 437 kts 323°
2026-05-09 02:08 17.54185 -97.15253 28407 ft 437 kts 323°
2026-05-09 02:09 17.56671 -97.17104 28865 ft 435 kts 322°
2026-05-09 02:09 17.59081 -97.19001 29279 ft 434 kts 320°
2026-05-09 02:09 17.61376 -97.21035 29625 ft 434 kts 316°
2026-05-09 02:09 17.63595 -97.23211 29945 ft 435 kts 315°
2026-05-09 02:10 17.65759 -97.25391 30253 ft 436 kts 315°
2026-05-09 02:10 17.70136 -97.29819 30321 ft 437 kts 314°
2026-05-09 02:11 17.74526 -97.34257 30331 ft 437 kts 315°
2026-05-09 02:11 17.78900 -97.38676 30320 ft 436 kts 314°
2026-05-09 02:12 17.83248 -97.43074 30301 ft 436 kts 314°
2026-05-09 02:12 17.87617 -97.47496 30297 ft 436 kts 315°
2026-05-09 02:13 17.91973 -97.51906 30292 ft 436 kts 315°
2026-05-09 02:13 17.96343 -97.56332 30286 ft 437 kts 315°
2026-05-09 02:14 18.00716 -97.60766 30279 ft 436 kts 315°
2026-05-09 02:14 18.05083 -97.65198 30267 ft 436 kts 315°
2026-05-09 02:15 18.09424 -97.69630 30258 ft 435 kts 314°
2026-05-09 02:15 18.13774 -97.74043 30248 ft 435 kts 315°
2026-05-09 02:16 18.18129 -97.78458 30238 ft 435 kts 314°
2026-05-09 02:16 18.22494 -97.82902 30230 ft 435 kts 314°
2026-05-09 02:17 18.26823 -97.87302 30223 ft 434 kts 315°
2026-05-09 02:17 18.31179 -97.91731 30226 ft 434 kts 315°
2026-05-09 02:18 18.35508 -97.96144 30238 ft 434 kts 315°
2026-05-09 02:18 18.39855 -98.00575 30258 ft 434 kts 314°
2026-05-09 02:19 18.44166 -98.04980 30271 ft 434 kts 315°
2026-05-09 02:19 18.48515 -98.09424 30273 ft 434 kts 314°
2026-05-09 02:20 18.52826 -98.13834 30268 ft 434 kts 314°
2026-05-09 02:20 18.57138 -98.18248 30115 ft 428 kts 314°
2026-05-09 02:20 18.59271 -98.20435 29486 ft 429 kts 314°
2026-05-09 02:21 18.61427 -98.22646 28456 ft 438 kts 315°
2026-05-09 02:21 18.63630 -98.24906 27486 ft 445 kts 315°
2026-05-09 02:21 18.65834 -98.27164 26812 ft 444 kts 315°
2026-05-09 02:21 18.68034 -98.29420 26406 ft 437 kts 315°
2026-05-09 02:22 18.70099 -98.31703 26091 ft 427 kts 307°
2026-05-09 02:22 18.71630 -98.34351 25434 ft 425 kts 292°
2026-05-09 02:22 18.72529 -98.37298 24872 ft 421 kts 281°
2026-05-09 02:22 18.73086 -98.40314 24334 ft 418 kts 279°
2026-05-09 02:23 18.73608 -98.43319 23797 ft 416 kts 279°
2026-05-09 02:23 18.74124 -98.46273 23267 ft 413 kts 279°
2026-05-09 02:23 18.74654 -98.49259 22733 ft 411 kts 279°
2026-05-09 02:23 18.75178 -98.52183 22221 ft 408 kts 280°
2026-05-09 02:24 18.75709 -98.55114 21720 ft 406 kts 279°
2026-05-09 02:24 18.76234 -98.58015 21204 ft 404 kts 280°
2026-05-09 02:24 18.76759 -98.60908 20688 ft 402 kts 280°
2026-05-09 02:24 18.77285 -98.63798 20189 ft 400 kts 280°
2026-05-09 02:25 18.77807 -98.66672 19665 ft 398 kts 279°
2026-05-09 02:25 18.78319 -98.69502 19156 ft 396 kts 279°
2026-05-09 02:25 18.78834 -98.72345 18639 ft 395 kts 279°
2026-05-09 02:25 18.79348 -98.75193 18129 ft 392 kts 279°
2026-05-09 02:26 18.79977 -98.77956 17672 ft 389 kts 290°
2026-05-09 02:26 18.81444 -98.80325 17306 ft 385 kts 315°
2026-05-09 02:26 18.83611 -98.81910 17006 ft 380 kts 332°
2026-05-09 02:26 18.85971 -98.83151 16713 ft 374 kts 332°
2026-05-09 02:27 18.88281 -98.84375 16425 ft 367 kts 332°
2026-05-09 02:27 18.90537 -98.85604 16127 ft 360 kts 331°
2026-05-09 02:27 18.92728 -98.86823 15837 ft 354 kts 330°
2026-05-09 02:27 18.94881 -98.88036 15523 ft 344 kts 330°
2026-05-09 02:28 18.96917 -98.89192 15329 ft 325 kts 330°
2026-05-09 02:28 18.98873 -98.90311 15153 ft 319 kts 330°
2026-05-09 02:28 19.00829 -98.91432 14951 ft 316 kts 330°
2026-05-09 02:28 19.02732 -98.92522 14589 ft 307 kts 329°
2026-05-09 02:29 19.04594 -98.93591 14336 ft 301 kts 329°
2026-05-09 02:29 19.06458 -98.94663 14347 ft 299 kts 329°
2026-05-09 02:29 19.08222 -98.95676 14306 ft 284 kts 329°
2026-05-09 02:29 19.09939 -98.96661 14257 ft 271 kts 329°
2026-05-09 02:30 19.11553 -98.97585 14213 ft 263 kts 329°
2026-05-09 02:30 19.13180 -98.98515 14172 ft 262 kts 329°
2026-05-09 02:30 19.14766 -98.99423 14127 ft 261 kts 329°
2026-05-09 02:30 19.16366 -99.00342 14087 ft 260 kts 328°
2026-05-09 02:31 19.17909 -99.01370 13999 ft 261 kts 320°
2026-05-09 02:31 19.19272 -99.02585 13731 ft 257 kts 315°
2026-05-09 02:31 19.20582 -99.03886 13350 ft 258 kts 314°
2026-05-09 02:31 19.21879 -99.05190 13016 ft 252 kts 314°
2026-05-09 02:32 19.23134 -99.06448 12702 ft 246 kts 314°
2026-05-09 02:32 19.24320 -99.07733 12398 ft 240 kts 309°
2026-05-09 02:32 19.25363 -99.09089 12110 ft 236 kts 306°
2026-05-09 02:32 19.26351 -99.10460 11827 ft 235 kts 306°
2026-05-09 02:33 19.27340 -99.11839 11545 ft 236 kts 306°
2026-05-09 02:33 19.28342 -99.13232 11268 ft 236 kts 306°
2026-05-09 02:33 19.29330 -99.14606 10996 ft 235 kts 306°
2026-05-09 02:33 19.30314 -99.15972 10731 ft 234 kts 307°
2026-05-09 02:34 19.31274 -99.17300 10531 ft 219 kts 307°
2026-05-09 02:34 19.32251 -99.18495 10112 ft 214 kts 320°
2026-05-09 02:34 19.33520 -99.19212 9848 ft 201 kts 344°
2026-05-09 02:34 19.34852 -99.19375 9690 ft 184 kts
2026-05-09 02:35 19.36080 -99.19054 9444 ft 182 kts 26°
2026-05-09 02:35 19.37095 -99.18307 9218 ft 176 kts 48°
2026-05-09 02:35 19.37811 -99.17308 9016 ft 163 kts 57°
2026-05-09 02:35 19.38393 -99.16303 8988 ft 161 kts 60°
2026-05-09 02:36 19.38959 -99.15274 8831 ft 161 kts 60°
2026-05-09 02:36 19.39521 -99.14257 8618 ft 159 kts 59°
2026-05-09 02:36 19.40086 -99.13247 8409 ft 158 kts 59°
2026-05-09 02:36 19.40649 -99.12243 8202 ft 157 kts 59°
2026-05-09 02:37 19.41201 -99.11260 8000 ft 156 kts 59°
2026-05-09 02:37 19.41753 -99.10276 7799 ft 155 kts 59°
2026-05-09 02:37 19.42299 -99.09283 7594 ft 154 kts 58°
2026-05-09 02:37 19.42843 -99.08306 7409 ft 154 kts 53°
2026-05-09 02:38 19.43376 -99.07371 7340 ft 138 kts 58°
2026-05-09 02:38 19.43785 -99.06657 7337 ft 83 kts 59°
2026-05-09 02:38 19.44002 -99.06300 7331 ft 35 kts 41°
2026-05-09 02:38 19.44105 -99.06220 7331 ft 0 kts 29°
2026-05-09 02:39 19.44106 -99.06220 7331 ft 0 kts 28°
2026-05-09 02:39 19.44120 -99.06212 7331 ft 3 kts 27°
2026-05-09 02:39 19.44167 -99.06189 7331 ft 11 kts 19°
2026-05-09 02:40 19.44263 -99.06168 7332 ft 17 kts
2026-05-09 02:40 19.44368 -99.06177 7334 ft 11 kts 327°
2026-05-09 02:40 19.44397 -99.06219 7334 ft 4 kts 293°
2026-05-09 02:40 19.44419 -99.06287 7335 ft 13 kts 276°